• Join FlightAware (Why Join?)
  • Login
  • US Flag 
01:19PM EDT


 

Airport Tracker/Info


-or-


 

Live Flight TrackerFlight Track Log ✈ CHQ6127 ✈ 12-Jun-2013 ✈ KBOS - KCMH

Flight Track Log - Related Links

Times and Time Zones

All times are in EDT time to prevent confusion due to time zone crossing. See the CHQ6127 flight status page for this flight to view local times or setup timezone preferences in your user account.

Time Position Orientation Groundspeed Altitude Reporting Facility
EDT Latitude Longitude Course Direction KTS MPH feet Rate Location/Type
09:36AM 42.3500 -71.0167 228° Southwest 169 194 500  Level KA90
09:36AM 42.3333 -71.0167 180° South 175 201 1,400 1,800 Climbing KA90
09:37AM 42.3167 -70.9500 109° East 237 273 3,100 2,220 Climbing KA90
09:38AM 42.3167 -70.8667 90° East 226 260 5,900 2,400 Climbing KA90
09:39AM 42.3964 -70.7333 180° South  Level FlightAware Approximate
09:39AM 42.3333 -70.7833 75° East 264 304 7,700  Level KA90
09:40AM 42.3024 -70.7171 172° South  Level FlightAware Approximate
09:40AM 42.2747 -70.7200 141° Southeast 288 331 9,300  Level Boston Center
09:41AM 42.2381 -70.8095 228° Southwest  Level FlightAware Approximate
09:41AM 42.2106 -70.7442 196° South 284 327 10,700  Level Boston Center
09:42AM 42.1744 -70.8406 243° Southwest 262 302 11,500 780 Climbing Boston Center
09:43AM 42.1722 -70.9778 269° West 302 348 12,300 1,020 Climbing Boston Center
09:44AM 42.1717 -71.1011 270° West 351 404 13,600 1,800 Climbing Boston Center
09:45AM 42.1731 -71.2383 271° West 351 404 16,000 1,800 Climbing Boston Center
09:46AM 42.1722 -71.3531 269° West 338 389 17,200 1,440 Climbing Boston Center
09:47AM 42.1733 -71.4933 271° West 343 395 18,900 1,380 Climbing Boston Center
09:48AM 42.1703 -71.6278 268° West 354 407 20,000 960 Climbing Boston Center
09:49AM 42.1692 -71.7706 269° West 367 422 20,900 900 Climbing Boston Center
09:50AM 42.1700 -71.9106 271° West 372 428 21,900 960 Climbing Boston Center
09:51AM 42.1683 -72.0536 269° West 382 440 22,900 900 Climbing Boston Center
09:52AM 42.1667 -72.1992 269° West 387 445 23,800 900 Climbing Boston Center
09:53AM 42.1650 -72.3450 269° West 387 445 24,800 1,800 Climbing Boston Center
09:54AM 42.1628 -72.4819 269° West 382 440 27,400 1,560 Climbing Boston Center
09:55AM 42.1586 -72.6136 268° West 366 421 28,000 300 Climbing Boston Center
09:56AM 42.1561 -72.7594 269° West 366 421 28,000  Level Boston Center
09:57AM 42.1494 -72.9078 267° West 380 437 28,000  Level Boston Center
09:58AM 42.1486 -73.0589 270° West 398 458 28,000  Level Boston Center
09:59AM 42.1436 -73.2100 267° West 404 465 28,000  Level Boston Center
10:00AM 42.1383 -73.3611 267° West 404 465 28,000  Level Boston Center
10:01AM 42.1347 -73.5150 268° West 404 465 28,000  Level Boston Center
10:02AM 42.1292 -73.6689 267° West 404 465 28,000  Level Boston Center
10:03AM 42.1253 -73.8172 268° West 404 465 28,000  Level Boston Center
10:04AM 42.1192 -73.9656 267° West 404 465 28,000  Level Boston Center
10:05AM 42.1153 -74.1053 268° West 399 459 28,000  Level Boston Center
10:06AM 42.1108 -74.2481 268° West 394 453 28,000  Level Boston Center
10:07AM 42.1044 -74.3878 267° West 381 438 28,000  Level Boston Center
10:08AM 42.0981 -74.5161 266° West 381 438 28,000  Level Boston Center
10:09AM 42.0911 -74.6614 266° West 386 444 28,000 -60 Level Boston Center
10:10AM 42.0861 -74.7983 267° West 380 437 27,900  Descending Boston Center
10:12AM 42.0750 -75.0569 267° West 385 443 28,000  Climbing New York Center
10:13AM 42.0678 -75.1989 266° West 385 443 28,000  Level New York Center
10:14AM 42.0519 -75.3431 262° West 385 443 28,000  Level New York Center
10:15AM 41.9964 -75.4814 242° Southwest 392 451 28,000  Level New York Center
10:16AM 41.9389 -75.6167 240° Southwest 406 467 28,000  Level New York Center
10:17AM 41.8811 -75.7575 241° Southwest 419 482 28,000  Level New York Center
10:18AM 41.8253 -75.8925 241° Southwest 424 488 28,000  Level New York Center
10:19AM 41.7672 -76.0325 241° Southwest 424 488 28,000  Level New York Center
10:20AM 41.7089 -76.1725 241° Southwest 431 496 28,000  Level New York Center
10:21AM 41.6506 -76.3092 240° Southwest 431 496 28,000  Level New York Center
10:22AM 41.5919 -76.4458 240° Southwest 431 496 28,000  Level New York Center
10:23AM 41.5283 -76.6011 241° Southwest 431 496 28,000  Level New York Center
10:24AM 41.4672 -76.7372 239° Southwest 431 496 28,000  Level New York Center
10:25AM 41.4086 -76.8703 240° Southwest 431 496 28,000  Level New York Center
10:26AM 41.3539 -77.0008 241° Southwest 425 489 28,000  Level New York Center
10:27AM 41.2944 -77.1361 240° Southwest 425 489 28,000  Level New York Center
10:28AM 41.2375 -77.2661 240° Southwest 425 489 28,000  Level New York Center
10:29AM 41.1894 -77.3800 241° Southwest 413 475 28,000  Level New York Center
10:30AM 41.1278 -77.5117 238° Southwest 413 475 28,000  Level New York Center
10:31AM 41.0725 -77.6439 241° Southwest 408 470 28,000  Level New York Center
10:32AM 41.0106 -77.7789 239° Southwest 412 474 28,000  Level Cleveland Center
10:33AM 40.9531 -77.9081 240° Southwest 417 480 28,000  Level Cleveland Center
10:34AM 40.8997 -78.0392 242° Southwest 411 473 28,000  Level Cleveland Center
10:35AM 40.8592 -78.1781 249° West 400 460 28,000 -120 Level Cleveland Center
10:36AM 40.8158 -78.3142 247° West 400 460 27,800 -900 Descending Cleveland Center
10:37AM 40.7747 -78.4500 248° West 400 460 26,300 -1,560 Descending Cleveland Center
10:38AM 40.7336 -78.5883 249° West 400 460 24,700 -1,200 Descending Cleveland Center
10:39AM 40.6919 -78.7211 248° West 400 460 24,000 -360 Descending Cleveland Center
10:40AM 40.6525 -78.8533 249° West 400 460 24,000  Level Cleveland Center
10:41AM 40.6083 -78.9886 247° West 400 460 24,000  Level Cleveland Center
10:42AM 40.5664 -79.1208 247° West 400 460 24,000  Level Cleveland Center
10:43AM 40.5244 -79.2556 248° West 400 460 24,000  Level Cleveland Center
10:44AM 40.4800 -79.3931 247° West 400 460 24,000  Level Cleveland Center
10:45AM 40.4397 -79.5275 249° West 400 460 24,000  Level Cleveland Center
10:46AM 40.3950 -79.6617 246° West 400 460 24,000  Level Cleveland Center
10:47AM 40.3522 -79.7983 248° West 400 460 24,000  Level Cleveland Center
10:48AM 40.3092 -79.9297 247° West 400 460 24,000  Level Cleveland Center
10:49AM 40.2661 -80.0606 247° West 395 455 24,000  Level Cleveland Center
10:50AM 40.2186 -80.2053 247° West 395 455 24,000  Level Cleveland Center
10:51AM 40.1772 -80.3303 247° West 395 455 24,000 -60 Level Cleveland Center
10:52AM 40.1358 -80.4556 247° West 386 444 23,900 -600 Descending Cleveland Center
10:53AM 40.0900 -80.5911 246° West 391 450 22,900 -960 Descending Cleveland Center
10:54AM 40.0506 -80.7106 247° West 396 456 22,000 -1,020 Descending Cleveland Center
10:55AM 40.0106 -80.8406 248° West 396 456 20,900 -1,020 Descending Cleveland Center
10:56AM 39.9872 -80.9706 257° West 375 432 20,000 -480 Descending Cleveland Center
10:57AM 39.9597 -81.1086 255° West 369 425 20,000  Level Cleveland Center
10:58AM 39.9375 -81.2219 256° West 332 382 20,000  Level Indianapolis Center
10:59AM 39.9156 -81.3383 256° West 330 380 20,000 -420 Level Indianapolis Center
11:00AM 39.8939 -81.4522 256° West 338 389 19,200 -1,260 Descending Indianapolis Center
11:01AM 39.8681 -81.5761 255° West 349 402 17,500 -1,680 Descending Indianapolis Center
11:02AM 39.8422 -81.7003 255° West 353 406 15,800 -1,680 Descending Indianapolis Center
11:03AM 39.8186 -81.8250 256° West 353 406 14,100 -1,860 Descending Indianapolis Center
11:04AM 39.7897 -81.9661 255° West 344 396 12,000 -1,920 Descending Indianapolis Center
11:05AM 39.7761 -82.0303 255° West 334 384 11,200 -1,680 Descending Indianapolis Center
11:05AM 39.7667 -82.0811 256° West 329 379 10,300 -960 Descending Indianapolis Center
11:06AM 39.7569 -82.1747 262° West 314 361 10,000 -180 Descending Indianapolis Center
11:07AM 39.7736 -82.2794 282° West 288 331 10,000  Level Indianapolis Center
11:08AM 39.7933 -82.3869 283° West 262 302 10,000  Level Indianapolis Center
11:09AM 39.8072 -82.4728 282° West 251 289 10,000  Level Indianapolis Center
11:10AM 39.8228 -82.5586 283° West 243 280 10,000 -480 Level Indianapolis Center
11:11AM 39.8344 -82.6358 281° West 236 272 9,100 -960 Descending Indianapolis Center
11:11AM 39.8372 -82.6475 287° West 236 272 8,900 -1,020 Descending Indianapolis Center
11:12AM 39.8478 -82.7214 281° West 237 273 8,100 -1,200 Descending Indianapolis Center
11:12AM 39.8522 -82.7469 283° West 238 274 7,700 -1,020 Descending Indianapolis Center
11:13AM 39.8589 -82.8042 279° West 237 273 7,100 -1,020 Descending Indianapolis Center
11:13AM 39.8642 -82.8311 284° West 235 270 6,700 -1,020 Descending Indianapolis Center
11:14AM 39.8756 -82.8983 282° West 232 267 6,000 -720 Descending Indianapolis Center
11:14AM 39.8781 -82.9128 283° West 231 266 6,000 -240 Level Indianapolis Center
11:15AM 39.8878 -82.9678 283° West 224 258 5,800 -540 Descending Indianapolis Center
11:15AM 39.8917 -82.9931 281° West 227 261 5,500 -1,020 Descending Indianapolis Center
11:16AM 39.9028 -83.0536 283° West 233 268 4,800 -1,020 Descending Indianapolis Center
11:16AM 39.9058 -83.0750 281° West 228 262 4,500 -840 Descending Indianapolis Center
11:17AM 39.9267 -83.1325 295° West 240 276 4,000 -540 Descending Indianapolis Center
11:17AM 39.9442 -83.1344 355° North 243 280 4,000  Level Indianapolis Center